CZ-4 DEB, 26661

Orbit data source: Space-Track

CZ-4 DEB, 26661 is space debris in SSO originally from a launch on Thu, 14 Oct 1999 UTC launched from the Taiyaun Space Center, China (TSC). Debris objects in space refer to the collection of defunct objects orbiting the Earth. Examples of debris include non-operational satellites, rocket bodies, and fragments generated from explosions, collisions, or faulty payload assembly.

Loading next visibility...
Identifier
26661, 1999-057LT
Orbit
SSO
Country
Flag of CNCN / PRC
Related business
Manufacturer
Unknown
Mission
Spacecraft
Bus & Motor
Unknown
Mass
Unknown
Launch date (UTC)
1999-10-14 (26 years ago)
Launch vehicle
Unknown
Launch site
Taiyaun Space Center, China (TSC)
Object type
Payload
Rocket body
Debris
Shape & HBR
Unknown shape, 0.1 m
Radar Cross Section
Small (<0.1 m²)

Expand to show TLE details & history
Last TLE update: 22 hours ago

TLE from 22 hours ago
0 CZ-4 DEB
1 26661U 99057LT  25296.71461088  .00056750  00000-0  31540-2 0  9998
2 26661  98.1899  20.8800 0025609 239.1008 272.8398 15.13194276346449
Epoch: 2025-10-23T17:09Z
TLE epoch observation values (Epoch: 2025-10-23T17:09:02.380Z)
Latitude
28.08307°
Longitude
-84.36982°
Altitude
529.199 km
Speed
7.601 km/s
True Right ascension
13h 41m 02s
True Declination
27° 56' 09"
Sunlit
Object was in daylight at epoch
Visualization orbit readout
Latitude
Unknown
Longitude
Unknown
Altitude
Unknown
Speed
Unknown
Apparent Right ascension
Unknown
Apparent Declination
Unknown
Sunlit
N/A
Visualization observer readout
Local Sidereal Time
10:33:25
Azimuth
Unknown
Elevation
Unknown
Doppler factor
Unknown
Orbital elements
Apogee altitude
541.15 km
Perigee altitude
505.802 km
Semi-major axis
6,901.613 km
Eccentricity
0.00256
Inclination
98.1899°
RAAN
20.88°
Arg. of periapsis
239.1008°
True anomaly
272.54666°
Mean anomaly
272.8398°
Eccentric anomaly
272.69323°
Mean motion
3.78545 °/min
Orbital period
95.1 mins
BSTAR
0.003154
Loading maneuver chart data...
Computing Atmospheric mass density...

Documentation

Showing up to 5 results
|